576  
AXUS43 KLBF 231710  
MISLBF  
 
WESTERN AND NORTH CENTRAL NEBRASKA HOURLY WEATHER ROUNDUP  
NATIONAL WEATHER SERVICE NORTH PLATTE NE  
1200 PM CDT SUN APR 23 2017  
 
NOTE: "FAIR" INDICATES FEW OR NO CLOUDS BELOW 12,000 FEET WITH NO  
SIGNIFICANT WEATHER AND/OR OBSTRUCTIONS TO VISIBILITY.  
 
NOTE: STATIONS NOT REPORTING VARIABLES SUCH AS SKY/WEATHER OR  
PRESSURE ARE PROVIDED BY RAWS AND APRS NETWORKS AND ARE NOT UNDER  
NATIONAL WEATHER SERVICE QUALITY CONTROL.  
   
..OBSERVATIONS IN AND NEAR THE EASTERN PANHANDLE OF NEBRASKA
 
 
 
CITY SKY/WX TMP DP RH WIND PRES REMARKS  
PINE RIDGE CLOUDY 60 38 43 S18 29.84F  
CHADRON CLOUDY 66 35 31 SW20G26 29.81F  
ALLIANCE MOSUNNY 60 35 39 S24G31 29.88F  
SIDNEY CLOUDY 56 40 55 S20G28 29.96F  
CRESCENT LAKE N/A 60 34 38 S16G30 N/A  

 
   
..OBSERVATIONS IN NORTHERN NEBRASKA AND FAR SOUTHERN SOUTH DAKOTA
 
 
 
CITY SKY/WX TMP DP RH WIND PRES REMARKS  
WINNER FAIR 66 34 30 S30G37 29.88F  
VALENTINE PTSUNNY 65 29 25 S28G40 29.91F  
THEDFORD MOSUNNY 63 29 28 S25G37 29.97F  
AINSWORTH MOSUNNY 61 32 33 SW28G37 29.94S  
O'NEILL SUNNY 64 28 25 S21G29 29.99F  
ORD SUNNY 62 28 27 S21G35 30.02F  
BROKEN BOW SUNNY 62 28 27 S23G36 30.01F  
VALENTINE NWR N/A 61 30 31 S21G32 N/A  
HALSEY N/A 60 29 31 S14G26 N/A  
BUTTE N/A 63 31 30 S28G40 N/A  
CHAMBERS N/A 64 35 34 W12G20 N/A  
EWING N/A 63 34 34 S20G32 N/A  

 
   
..OBSERVATIONS IN SOUTHWEST NEBRASKA AND FAR NORTHEAST COLORADO
 
 
 
CITY SKY/WX TMP DP RH WIND PRES REMARKS  
HOLYOKE FAIR 61 37 41 S24 29.98F  
IMPERIAL MOSUNNY 58 36 43 S20G29 30.01F  
OGALLALA MOSUNNY 63 33 32 S28G33 29.96F  
NORTH PLATTE SUNNY 63 31 30 S24G36 30.01F  
MCCOOK SUNNY 62 33 33 S15G29 30.05F  
LEXINGTON SUNNY 63 28 26 S25G31 30.06F  
STAPLETON N/A 62 33 34 CALM N/A  
GOTHENBURG N/A 57 27 31 S14 N/A  
CALLAWAY N/A 59 32 36 S29 N/A  

 
   
..OBSERVATIONS IN CENTRAL LINCOLN COUNTY AREA
 
 
 
CITY SKY/WX TMP DP RH WIND PRES REMARKS  
N.P. AIRPORT SUNNY 63 31 30 S24G36 30.01F  
N.P. DOWNTOWN N/A 62 33 33 S9G20 N/A  
N.P. HILLCREST N/A 60 31 33 SW18G28 N/A  

 
   
..SOME OBSERVATIONS FROM AROUND THE REGION
 
 
 
CITY SKY/WX TMP DP RH WIND PRES REMARKS  
DENVER CLOUDY 59 31 34 W7 29.95F  
LIMON CLOUDY 56 35 45 S17G23 30.00F  
ASPEN SUNNY 58 18 21 VRB3 30.05F  
LARAMIE CLOUDY 57 19 22 SW6G18 29.96R  
CASPER SUNNY 62 29 28 SW16G25 29.84F  
CHEYENNE CLOUDY 60 25 26 S16 29.94F  
SCOTTSBLUFF CLOUDY 64 36 35 SE14 29.88F  
GRAND ISLAND SUNNY 65 29 25 S17G29 30.11F  
OMAHA MOSUNNY 66 30 26 S9 30.12F  
SIOUX FALLS PTSUNNY 65 40 39 S18G24 30.00F  
PIERRE PTSUNNY 66 37 34 S16G26 29.83F  
RAPID CITY CLOUDY 58 40 51 N6 29.80S  
BISMARCK CLOUDY 39 32 76 E20G29 29.99F WCI 29  
KANSAS CITY MOSUNNY 64 34 32 CALM 30.16F  
HILL CITY SUNNY 63 34 33 SW16 30.13F  
WICHITA MOSUNNY 62 30 29 VRB3 30.18F  
DODGE CITY SUNNY 61 33 35 S16 30.17S  
OKLAHOMA CITY SUNNY 63 36 36 N6 30.19F  
DALLAS SUNNY 68 41 37 N13 30.15F  
AMARILLO SUNNY 60 33 36 S10G26 30.21F  

 
 
 
CLICK HERE TO GO TO PREVIOUS BULLETINS.

The Nexlab NE Page Main Text Page